Погода в Каневке

Россия / Мурманская область     67°07′37″N   39°40′18″E
темп.,
°C
ветер,
м/с
пор.,
м/с
влажн.,
%
обл.,
%
осадки,
мм/ч
давл.,
гПа
погр.,
м
28 сентября, вт
вт2800:00+6зсз1192100 0.0 103010
03:00+6юз1191100 0.0 103010
06:00+6ююз1191100 0.0 103110
09:00+8ююз128575 0.0 103169
12:00+11юз337673 0.0 1031293
15:00+11зюз4676100 0.0 1031308
18:00+9зюз458898 0.0 103173
21:00+8зюз469169 0.0 103179
29 сентября, ср
ср2900:00+7зюз4892100 0.0 1030126
03:00+7з41086100 0.0 1030164
06:00+6з458745 0.0 103072
09:00+9з257696 0.0 1029130
12:00+12зсз476147 0.0 1029358
15:00+12зсз58596 0.0 1029514
18:00+9зсз4674100 0.0 102990
21:00+7сз357921 0.0 102964
30 сентября, чт
чт3000:00+5сз358535 0.0 103061
03:00+5зсз348859 0.0 103053
06:00+4зсз348971 0.0 103051
09:00+6сз37845 0.0 1030212
12:00+9сз466976 0.0 1030436
15:00+10сз356868 0.0 1030525
18:00+6сз22845 0.0 103011
21:00+5зсз118669 0.0 102910
1 октября, пт
пт100:00+5зюз1186100 0.0 102910
03:00+5зюз2288100 0.0 102811
06:00+4зюз229199 0.0 102818
09:00+5зюз35895 0.0 1027185
12:00+8зюз567736 0.0 1026526
15:00+8зюз576944 0.0 1025887
18:00+5зюз468228 0.0 102580
21:00+3зюз4991100 0.0 1025165
2 октября, сб
сб200:00+2зюз499420 0.0 1024169
03:00+2зюз499384 0.0 1023154
06:00+4зюз4993100 0.0 1023204
09:00+6зюз5990100 0.0 1023671
12:00+9зюз7107042 0.0 1023811
15:00+10зюз711678 0.0 1023753
18:00+6юз612855 0.0 1023292
21:00+5юз5129529 0.0 1023248